North Tumbulgum, Australia

9:54 AM AEST on August 17, 2017 (GMT +1000)
North Tumbulgum

Weather History for 94592 - May, 2013

Change the Weather History Date:

Sunday, May 5, 2013

  Actual Average Record
Temperature  
Mean Temperature 66 °F -  
Max Temperature 73 °F - - ()
Min Temperature 58 °F - - ()
Growing Degree Days 16 (Base 50)    
Moisture  
Dew Point 59 °F    
Average Humidity 76    
Maximum Humidity 94    
Minimum Humidity 49    
Precipitation  
Precipitation 0.00 in - - ()
Sea Level Pressure  
Sea Level Pressure 30.12 in    
Wind  
Wind Speed 6 mph ()    
Max Wind Speed 17 mph    
Max Gust Speed -    
Visibility 6.2 miles    
Events      
T = Trace of Precipitation, MM = Missing Value Source: Averaged Metar Reports

Daily Weather History Graph

Daily Weather History Graph

Search for Another Location

Airport or City:

Trip Planner

Search our weather history database for the weather conditions in past years. The results will help you decide how hot, cold, wet, or windy it might be!

Date:

Astronomy

May. 05, 2013 Rise Set
Actual Time 6:14 AM AEST 5:10 PM AEST
Civil Twilight 5:50 AM AEST 5:35 PM AEST
Nautical Twilight 5:22 AM AEST 6:03 PM AEST
Astronomical Twilight 4:54 AM AEST 6:30 PM AEST
Moon 1:35 AM AEST (5/5) 2:04 PM AEST (5/5)
Length of Visible Light 11h 44m
Length of Day
10h 56m
Waning Crescent, 23% of the Moon is Illuminated
May 5
Waning Crescent
May 10
New
May 18
First Quarter
May 25
Full
Jun 1
Last Quarter

Hourly Weather History & Observations

Time (AEST) Temp. Dew Point Humidity Pressure Visibility Wind Dir Wind Speed Gust Speed Precip Events Conditions
12:00 AM 61 °F 59 °F 89% 30.11 in - SSW 3.5 mph - -  
12:00 AM 60.8 °F 59.0 °F 94% 30.09 in 6.2 mi SSW 3.5 mph - N/A   Scattered Clouds
12:30 AM 60.8 °F 57.2 °F 88% 30.09 in 6.2 mi SSW 1.2 mph - N/A   Scattered Clouds
1:00 AM 60.8 °F 59.0 °F 94% 30.09 in 6.2 mi South 4.6 mph - N/A   Overcast
1:30 AM 62.6 °F 57.2 °F 82% 30.09 in 6.2 mi South 4.6 mph - N/A   Scattered Clouds
2:00 AM 62.6 °F 57.2 °F 82% 30.09 in 6.2 mi SSW 4.6 mph - N/A   Unknown
2:30 AM 62.6 °F 57.2 °F 82% 30.06 in 6.2 mi SSW 6.9 mph - N/A   Unknown
3:00 AM 65 °F 59 °F 74% 30.09 in - South 9.2 mph - -  
3:00 AM 66.2 °F 59.0 °F 78% 30.09 in 6.2 mi South 9.2 mph - N/A   Scattered Clouds
3:30 AM 64.4 °F 59.0 °F 83% 30.09 in 6.2 mi South 6.9 mph - N/A   Mostly Cloudy
4:00 AM 64.4 °F 59.0 °F 83% 30.09 in 6.2 mi South 6.9 mph - N/A   Overcast
4:30 AM 64.4 °F 59.0 °F 83% 30.09 in 6.2 mi South 4.6 mph - N/A   Overcast
5:00 AM 64.4 °F 59.0 °F 83% 30.09 in 6.2 mi SSE 5.8 mph - N/A   Overcast
5:30 AM 62.6 °F 59.0 °F 88% 30.12 in 6.2 mi SE 4.6 mph - N/A   Overcast
6:00 AM 63 °F 58 °F 80% 30.14 in - SSW 5.8 mph - -   Overcast
6:00 AM 62.6 °F 59.0 °F 88% 30.12 in 6.2 mi SSW 5.8 mph - N/A   Overcast
6:30 AM 64.4 °F 59.0 °F 83% 30.12 in 6.2 mi South 4.6 mph - N/A   Overcast
7:00 AM 64.4 °F 59.0 °F 83% 30.15 in 6.2 mi South 8.1 mph - N/A   Mostly Cloudy
7:30 AM 66.2 °F 60.8 °F 83% 30.15 in 6.2 mi South 10.4 mph - N/A   Mostly Cloudy
8:00 AM 68.0 °F 60.8 °F 78% 30.15 in 6.2 mi South 8.1 mph - N/A   Overcast
8:30 AM 68.0 °F 59.0 °F 73% 30.18 in 6.2 mi South 11.5 mph - N/A   Overcast
9:00 AM 68 °F 60 °F 68% 30.19 in - South 9.2 mph - -   Overcast
9:00 AM 68.0 °F 59.0 °F 73% 30.18 in 6.2 mi South 9.2 mph - N/A   Overcast
9:30 AM 69.8 °F 60.8 °F 73% 30.18 in 6.2 mi South 9.2 mph - N/A   Overcast
10:00 AM 71.6 °F 60.8 °F 69% 30.15 in 6.2 mi South 9.2 mph - N/A   Overcast
10:30 AM 71.6 °F 60.8 °F 69% 30.15 in 6.2 mi SSE 9.2 mph - N/A   Scattered Clouds
11:00 AM 73.4 °F 59.0 °F 61% 30.15 in 6.2 mi SSE 13.8 mph - N/A   Scattered Clouds
11:30 AM 73.4 °F 59.0 °F 61% 30.12 in 6.2 mi South 13.8 mph - N/A   Mostly Cloudy
12:00 PM 72 °F 59 °F 55% 30.13 in - South 12.7 mph - -   Overcast
12:00 PM 71.6 °F 59.0 °F 64% 30.12 in 6.2 mi South 12.7 mph - N/A   Overcast
12:30 PM 73.4 °F 59.0 °F 61% 30.12 in 6.2 mi SE 15.0 mph - N/A   Overcast
1:00 PM 73.4 °F 59.0 °F 61% 30.09 in 6.2 mi SSE 13.8 mph - N/A   Scattered Clouds
1:30 PM 73.4 °F 59.0 °F 61% 30.09 in 6.2 mi SE 17.3 mph - N/A   Scattered Clouds
2:00 PM 71.6 °F 59.0 °F 64% 30.09 in 6.2 mi SSE 13.8 mph - N/A   Mostly Cloudy
2:30 PM 71.6 °F 59.0 °F 64% 30.09 in 6.2 mi SSE 13.8 mph - N/A   Scattered Clouds
3:00 PM 73 °F 58 °F 49% 30.09 in - SSE 10.4 mph - -  
3:00 PM 73.4 °F 57.2 °F 57% 30.06 in 6.2 mi SSE 10.4 mph - N/A   Scattered Clouds
3:30 PM 71.6 °F 59.0 °F 64% 30.09 in 6.2 mi SSE 12.7 mph - N/A   Scattered Clouds
4:00 PM 69.8 °F 57.2 °F 64% 30.09 in 6.2 mi SSE 10.4 mph - N/A   Scattered Clouds
4:30 PM 69.8 °F 59.0 °F 68% 30.09 in 6.2 mi SSE 11.5 mph - N/A   Mostly Cloudy
5:00 PM 68.0 °F 57.2 °F 68% 30.09 in 6.2 mi South 6.9 mph - N/A   Scattered Clouds
5:30 PM 66.2 °F 59.0 °F 78% 30.09 in 6.2 mi SSW 4.6 mph - N/A   Scattered Clouds
6:00 PM 65 °F 58 °F 73% 30.12 in - SW 5.8 mph - -  
6:00 PM 66.2 °F 59.0 °F 78% 30.09 in 6.2 mi SW 5.8 mph - N/A   Unknown
6:30 PM 64.4 °F 59.0 °F 83% 30.12 in 6.2 mi West 5.8 mph - N/A   Unknown
7:00 PM 62.6 °F 59.0 °F 88% 30.12 in 6.2 mi WSW 4.6 mph - N/A   Mostly Cloudy
7:30 PM 62.6 °F 59.0 °F 88% 30.12 in 6.2 mi WSW 5.8 mph - N/A   Mostly Cloudy
8:00 PM 64.4 °F 59.0 °F 83% 30.15 in 6.2 mi SW 6.9 mph - N/A   Overcast
8:30 PM 64.4 °F 57.2 °F 77% 30.15 in 6.2 mi West 4.6 mph - N/A   Mostly Cloudy
9:00 PM 63 °F 58 °F 78% 30.17 in - SW 3.5 mph - -  
9:00 PM 62.6 °F 57.2 °F 82% 30.15 in 6.2 mi SW 3.5 mph - N/A   Scattered Clouds
9:30 PM 62.6 °F 57.2 °F 82% 30.15 in 6.2 mi South 5.8 mph - N/A   Unknown
10:00 PM 62.6 °F 57.2 °F 82% 30.15 in 6.2 mi SSW 3.5 mph - N/A   Scattered Clouds
10:30 PM 62.6 °F 57.2 °F 82% 30.15 in 6.2 mi SW 4.6 mph - N/A   Scattered Clouds
11:00 PM 62.6 °F 57.2 °F 82% 30.15 in 6.2 mi SW 3.5 mph - N/A   Scattered Clouds
11:30 PM 62.6 °F 57.2 °F 82% 30.15 in 6.2 mi South 5.8 mph - N/A   Scattered Clouds